Location: Brunsen
(51.8651°N, 9.8610°E)
Time: 11:43:42
(UTC+00:00)

ASTEX 1 - Pass Details

Date: 23 May 2024
Orbit: 715 x 740 km, 92.7° (Epoch: 18 June)

Event Time Altitude Azimuth Distance (km) Brightness Sun altitude
Rises 02:28:45 0° 159° (SSE) 3,150 6.4 -6.3°
Reaches altitude 10° 02:31:04 10° 155° (SSE) 2,229 5.7 -6.1°
Maximum altitude 02:35:53 57° 78° (ENE) 863 4.2 -5.6°
Drops below altitude 10° 02:40:42 10° 1° (N) 2,229 6.6 -5.0°
Sets 02:43:01 0° 358° (N) 3,151 7.3 -4.8°
